This is the latest recevied weather packets stored in our database for station/object KB4KY. If no packets are shown the sender has not sent any weather packets the latest 10 day(s).
| Time | Temp. | Humidity | Pressure | Rain* | Wind** | Luminosity | Snow |
|---|---|---|---|---|---|---|---|
| 1777365379 | 16.11° C | 96% | 1010.7 hPa | 1.27 mm | - | - | - |
| 1777365137 | 16.11° C | 96% | 1010.7 hPa | 1.27 mm | - | - | - |
| 1777364837 | 16.11° C | 96% | 1010.7 hPa | 1.78 mm | - | - | - |
| 1777364534 | 16.11° C | 96% | 1010.6 hPa | 2.03 mm | - | - | - |
| 1777364235 | 16.11° C | 96% | 1010.2 hPa | 2.29 mm | - | - | - |
| 1777363934 | 16.11° C | 96% | 1009.8 hPa | 2.54 mm | - | - | - |
| 1777363335 | 16.11° C | 96% | 1009.2 hPa | 3.3 mm | - | - | - |
| 1777363086 | 16.11° C | 97% | 1009.3 hPa | 3.56 mm | - | - | - |
| 1777363033 | 16.11° C | 97% | 1009.3 hPa | 3.56 mm | - | - | - |
| 1777362876 | 16.11° C | 97% | 1009.8 hPa | 4.57 mm | - | - | - |
| 1777362732 | 16.11° C | 97% | 1009.8 hPa | 4.57 mm | - | - | - |
| 1777362434 | 16.11° C | 97% | 1009.9 hPa | 4.83 mm | - | - | - |
| 1777362135 | 15.56° C | 97% | 1010.1 hPa | 5.84 mm | - | - | - |
| 1777361879 | 15.56° C | 97% | 1010.4 hPa | 8.13 mm | - | - | - |
| 1777361835 | 15.56° C | 97% | 1010.4 hPa | 8.13 mm | - | - | - |
| 1777361601 | 15.56° C | 97% | 1010 hPa | 12.45 mm | - | - | - |
| 1777361533 | 15.56° C | 97% | 1010 hPa | 12.45 mm | - | - | - |
| 1777361234 | 15.56° C | 97% | 1010.5 hPa | 16.51 mm | - | - | - |
| 1777360929 | 15.56° C | 97% | 1010.4 hPa | 19.3 mm | - | - | - |
| 1777360635 | 15.56° C | 97% | 1010.6 hPa | 24.89 mm | - | - | - |
| 1777360332 | 15.56° C | 97% | 1010.3 hPa | 29.72 mm | - | - | - |
| 1777360033 | 15.56° C | 97% | 1010.9 hPa | 34.29 mm | - | - | - |
| 1777359733 | 15.56° C | 96% | 1011.7 hPa | 34.29 mm | - | - | - |
| 1777359432 | 15.56° C | 96% | 1012.1 hPa | 35.56 mm | - | - | - |
| 1777359132 | 15.56° C | 96% | 1011.9 hPa | 36.32 mm | - | - | - |
* Rain latest hour (hover to see other rain measurements)
** Current wind speed in m/s (hover to see current wind gust speed)